Flag for Mongolia Weather past 2 weeks in Ulaanbaatar, Mongolia

Now
77 °F

Scattered clouds.


Feels Like: 76 °F
Forecast: 46 / 80 °F
Wind: 3 mph from North

Location: Ulan-Bator

Current Time: May 22, 2015 at 7:01:50 PM

Latest Report: May 22, 2015 at 6:30 PM


Visibility: N/A

Pressure: 29.80 "Hg

Humidity: 13%

Dew point: 23 °F

Location of UlaanbaatarLocation

Historic Weather in Ulaanbaatar — Graph

°F

Ulaanbaatar temperature yesterday

Maximum temperature yesterday: 77 °F (at 3:30 PM)
Minimum temperature yesterday: 34 °F (at 6:00 AM)
Average temperature yesterday: 59 °F

Past Weeks' High & Low Weather Summary

 TemperatureHumidityPressure
High79 °F (May 22, 3:30 PM)86% (May 8, 5:00 AM)30.18 "Hg (May 8, 5:00 AM)
Low12 °F (May 8, 6:00 AM)10% (May 20, 4:00 PM)29.36 "Hg (May 12, 5:00 PM)
Average46 °F34%29.92 "Hg
* Reported May 7 6:00 PM — May 22 6:00 PM, Ulaanbaatar, Weather by CustomWeather, © 2015

Note: Actual official high and low records may vary slightly from our data, if they occured in-between our weather recording intervals... More about our weather records

Advertising

Ulaanbaatar weather history for previous 24 hours

 ConditionsComfort  
Time TempWeatherWind HumidityBarometerVisibility
6:00 PM
Fri, May 22
77 °FScattered clouds.3 mph13%29.80 "HgN/A
5:30 PM75 °FScattered clouds.6 mph13%29.80 "HgN/A
5:00 PM75 °FScattered clouds.8 mph13%29.80 "HgN/A
4:30 PM75 °FScattered clouds.15 mph14%29.83 "HgN/A
4:00 PM77 °FScattered clouds.6 mph12%29.83 "HgN/A
3:30 PM79 °FScattered clouds.6 mph12%29.83 "HgN/A
3:00 PM75 °FScattered clouds.6 mph13%29.86 "HgN/A
2:30 PM77 °FPassing clouds.6 mph12%29.86 "HgN/A
2:00 PM75 °FPassing clouds.3 mph13%29.86 "HgN/A
1:30 PM75 °FPassing clouds.8 mph13%29.89 "HgN/A
1:00 PM75 °FPassing clouds.6 mph14%29.89 "HgN/A
12:30 PM73 °FPassing clouds.3 mph19%29.89 "HgN/A
11:30 AM70 °FPassing clouds.1 mph21%29.92 "HgN/A
11:00 AM66 °FPassing clouds.1 mph22%29.92 "HgN/A
10:30 AM63 °FScattered clouds.No wind27%29.92 "HgN/A
10:00 AM59 °FScattered clouds.1 mph31%29.92 "HgN/A
9:30 AM57 °FScattered clouds.No wind31%29.92 "HgN/A
9:00 AM54 °FScattered clouds.No wind35%29.95 "HgN/A
8:30 AM52 °FPassing clouds.No wind38%29.95 "HgN/A
8:00 AM48 °FPassing clouds.No wind43%29.95 "HgN/A
7:30 AM43 °FPassing clouds.No wind49%29.95 "HgN/A
7:00 AM39 °FPassing clouds.1 mph56%29.92 "HgN/A
6:30 AM41 °FPassing clouds.1 mph45%29.92 "HgN/A
6:00 AM37 °FClear.1 mph52%29.92 "Hg10 mi
5:30 AM41 °FClear.No wind45%29.92 "Hg10 mi
5:00 AM41 °FClear.No wind49%29.92 "Hg10 mi
4:00 AM45 °FClear.1 mph46%29.92 "Hg10 mi
3:00 AM52 °FClear.No wind32%29.92 "Hg10 mi
2:00 AM50 °FClear.No wind32%29.92 "Hg10 mi
1:30 AM57 °FClear.1 mph27%29.92 "Hg10 mi
1:00 AM48 °FClear.3 mph34%29.92 "Hg10 mi
12:30 AM52 °FClear.6 mph32%29.92 "Hg10 mi
12:00 AM52 °FClear.6 mph30%29.92 "Hg10 mi
11:30 PM
Thu, May 21
54 °FPassing clouds.3 mph28%29.92 "HgN/A
11:00 PM57 °FPassing clouds.1 mph25%29.92 "HgN/A
10:30 PM57 °FScattered clouds.1 mph25%29.92 "HgN/A
10:00 PM66 °FScattered clouds.1 mph18%29.89 "HgN/A
9:30 PM72 °FScattered clouds.6 mph15%29.89 "HgN/A
9:00 PM72 °FScattered clouds.3 mph15%29.89 "HgN/A
8:30 PM72 °FScattered clouds.8 mph16%29.86 "HgN/A
8:00 PM73 °FScattered clouds.13 mph13%29.86 "HgN/A
7:30 PM75 °FScattered clouds.10 mph11%29.86 "HgN/A
7:00 PM75 °FScattered clouds.10 mph10%29.86 "HgN/A
Weather by CustomWeather, © 2015

See weather overviewHow to use our weather pages